SARAL                   
1 39086U 13009A   19266.15037182 -.00000020  00000-0  86038-5 0  9993
2 39086  98.5428  90.8434 0001023  38.1384 321.9872 14.32011100343606
AAUSAT 3                
1 39087U 13009B   19266.07341004  .00000064  00000-0  37168-4 0  9992
2 39087  98.4773 110.8735 0012718   5.7443 354.3885 14.35750564344304
SAPPHIRE                
1 39088U 13009C   19265.81844848 -.00000027  00000-0  56732-5 0  9997
2 39088  98.4908 107.3314 0011566   9.0347 351.1044 14.34196051343999
NEOSSAT                 
1 39089U 13009D   19265.17389728  .00000026  00000-0  24600-4 0  9994
2 39089  98.4884 107.1092 0011579  13.5894 346.5601 14.34476121343957
STRAND-1                
1 39090U 13009E   19266.14200045  .00000027  00000-0  24580-4 0  9996
2 39090  98.4799 110.4454 0009384   9.7519 350.3847 14.35097531344226
BRITE-AUSTRIA           
1 39091U 13009F   19265.15665293 -.00000002  00000-0  14475-4 0  9993
2 39091  98.4783 108.6527 0010901  18.7183 341.4401 14.35121167344101
UNIBRITE                
1 39092U 13009G   19265.15884299  .00000010  00000-0  18659-4 0  9999
2 39092  98.4804 108.3131 0009683  13.6107 346.5337 14.34994315344071
PSLV R/B                
1 39093U 13009H   19266.17677296 -.00000012  00000-0  90951-5 0  9999
2 39093  98.3745 145.2808 0045065 353.6204   6.4409 14.46803943347002
PSLV DEB                
1 39094U 13009J   19265.67969692  .00000186  00000-0  77632-4 0  9999
2 39094  98.4746 112.8789 0011267 351.1438   8.9548 14.36837931344395